N1LTP Weather Reports


Display with metric or nautical units.
time (UTC)temp
F
wind
direction
speed
MPH
gust
MPH
rain 1hr
in
rain 24hr
in
rain mn
in
humidity
%
barometer
mb
20220523123051 61 269 2.0 9.0 0.00 0.00 0.00 66 1019.8
20220523121603 62 265 1.0 4.0 0.00 0.00 0.00 68 1019.5
20220523120044 62 315 1.0 9.0 0.00 0.00 0.00 69 1019.2
20220523114550 61 296 3.0 8.0 0.00 0.00 0.00 72 1019.4
20220523113038 61 270 1.0 8.0 0.00 0.00 0.00 74 1019.3
20220523111535 62 288 1.0 8.0 0.00 0.00 0.00 73 1019.1
20220523110038 62 298 2.0 11.0 0.00 0.00 0.00 73 1018.9
20220523104532 62 271 2.0 6.0 0.00 0.00 0.00 73 1018.8
20220523103028 62 161 1.0 6.0 0.00 0.00 0.00 72 1018.6
20220523101535 63 290 1.0 6.0 0.00 0.00 0.00 73 1018.2
20220523100020 63 272 1.0 8.0 0.00 0.00 0.00 76 1017.8
20220523094516 64 234 1.0 8.0 0.00 0.00 0.00 80 1017.5
20220523093013 64 249 1.0 7.0 0.00 0.00 0.00 79 1017.2
20220523091511 64 286 1.0 9.0 0.00 0.00 0.00 77 1017.1
20220523090007 64 288 2.0 6.0 0.00 0.00 0.00 81 1016.7
20220523084505 65 261 2.0 6.0 0.00 0.00 0.00 81 1016.3
20220523083002 66 257 1.0 5.0 0.00 0.00 0.00 82 1016.1
20220523081558 67 304 1.0 9.0 0.00 0.00 0.00 83 1015.8
20220523080056 68 275 1.0 5.0 0.00 0.00 0.00 87 1015.3
20220523074553 68 279 2.0 8.0 0.00 0.00 0.00 88 1015.1
20220523073055 68 333 2.0 8.0 0.00 0.00 0.00 88 1014.8
20220523071550 68 327 1.0 5.0 0.00 0.00 0.00 90 1014.8
20220523070049 67 251 0.0 3.0 0.00 0.00 0.00 91 1014.7
20220523064559 67 279 0.0 2.0 0.00 0.00 0.00 91 1014.5
20220523063048 68 279 0.0 2.0 0.00 0.00 0.00 91 1014.3
20220523061553 68 279 0.0 1.0 0.00 0.00 0.00 90 1014.2
20220523060041 68 279 0.0 2.0 0.00 0.00 0.00 90 1014.1
20220523054538 68 279 0.0 1.0 0.00 0.00 0.00 89 1014.0
20220523053037 69 279 0.0 2.0 0.00 0.00 0.00 88 1013.8
20220523051534 69 279 0.0 2.0 0.00 0.00 0.00 88 1013.7
20220523050033 70 279 1.0 2.0 0.00 0.00 0.00 87 1013.6
20220523044535 70 279 0.0 2.0 0.00 0.00 0.00 86 1013.6
20220523043045 70 279 0.0 1.0 0.00 0.00 0.00 86 1013.6
20220523041525 71 279 0.0 1.0 0.00 0.00 0.00 85 1013.8
20220523040024 71 279 0.0 1.0 0.00 0.00 0.00 84 1013.8
20220523034525 72 279 0.0 2.0 0.00 0.00 0.00 82 1013.6
20220523033021 72 288 0.0 3.0 0.00 0.00 0.00 81 1013.9
20220523031519 73 288 0.0 5.0 0.00 0.00 0.00 79 1013.9
20220523030019 73 288 1.0 5.0 0.00 0.00 0.00 79 1014.1
20220523024519 72 311 2.0 7.0 0.00 0.00 0.00 81 1014.3
20220523023019 72 305 1.0 2.0 0.00 0.00 0.00 85 1014.5
20220523021518 72 309 0.0 2.0 0.00 0.00 0.00 85 1014.3
20220523020018 72 309 0.0 1.0 0.00 0.00 0.00 83 1014.2
20220523014517 72 309 0.0 2.0 0.00 0.00 0.00 83 1014.3
20220523013017 72 304 1.0 4.0 0.00 0.00 0.00 82 1014.3
20220523011516 72 245 0.0 1.0 0.00 0.00 0.00 81 1013.3
20220523010037 73 245 0.0 2.0 0.00 0.00 0.00 80 1012.9
20220523004520 74 244 0.0 2.0 0.00 0.00 0.00 79 1012.8
20220523003023 75 126 0.0 3.0 0.00 0.00 0.00 78 1012.4
20220523001514 75 321 0.0 3.0 0.00 0.00 0.00 77 1012.5
20220523000013 76 163 0.0 2.0 0.00 0.00 0.00 75 1012.3
20220522234513 78 203 0.0 2.0 0.00 0.00 0.00 74 1012.1
20220522233013 78 300 0.0 3.0 0.00 0.00 0.00 72 1011.9
20220522231525 79 142 0.0 6.0 0.00 0.00 0.00 71 1011.7
20220522230011 80 128 0.0 4.0 0.00 0.00 0.00 70 1011.7
20220522224512 81 156 0.0 7.0 0.00 0.00 0.00 69 1011.5
20220522223012 81 125 1.0 5.0 0.00 0.00 0.00 68 1011.4
20220522221515 81 28 0.0 4.0 0.00 0.00 0.00 68 1011.5
20220522220008 81 155 1.0 5.0 0.00 0.00 0.00 67 1011.7
20220522214511 81 148 1.0 8.0 0.00 0.00 0.00 67 1011.5
20220522213008 81 119 1.0 5.0 0.00 0.00 0.00 65 1011.3
20220522211507 83 193 2.0 5.0 0.00 0.00 0.00 63 1011.3
20220522210006 86 163 2.0 8.0 0.00 0.00 0.00 59 1011.4
20220522204505 87 5 0.0 5.0 0.00 0.00 0.00 61 1011.3
20220522203006 88 176 2.0 8.0 0.00 0.00 0.00 58 1011.2
20220522201503 89 254 1.0 10.0 0.00 0.00 0.00 60 1011.3
20220522200002 89 346 1.0 7.0 0.00 0.00 0.00 57 1011.4
20220522194502 90 299 2.0 6.0 0.00 0.00 0.00 57 1011.5
20220522193059 90 38 2.0 7.0 0.00 0.00 0.00 55 1011.5
20220522191604 91 123 1.0 5.0 0.00 0.00 0.00 55 1011.9
20220522190056 92 279 2.0 8.0 0.00 0.00 0.00 57 1012.0
20220522184554 92 161 1.0 5.0 0.00 0.00 0.00 56 1012.1
20220522183052 92 11 2.0 10.0 0.00 0.00 0.00 55 1012.4
20220522181550 92 141 1.0 8.0 0.00 0.00 0.00 56 1012.6
20220522180048 91 119 1.0 6.0 0.00 0.00 0.00 55 1012.8
20220522174555 92 266 2.0 5.0 0.00 0.00 0.00 55 1013.2
20220522173052 91 126 1.0 7.0 0.00 0.00 0.00 57 1013.4
20220522171543 91 138 2.0 8.0 0.00 0.00 0.00 59 1013.5
20220522170041 90 94 1.0 6.0 0.00 0.00 0.00 56 1013.6
20220522164539 91 140 2.0 7.0 0.00 0.00 0.00 53 1013.9
20220522163103 91 142 2.0 5.0 0.00 0.00 0.00 55 1013.9
20220522161543 91 123 1.0 7.0 0.00 0.00 0.00 56 1013.9
20220522160036 90 319 1.0 4.0 0.00 0.00 0.00 57 1013.9
20220522154529 90 345 1.0 3.0 0.00 0.00 0.00 58 1014.1
20220522153031 89 340 1.0 7.0 0.00 0.00 0.00 62 1014.2
20220522151524 89 130 0.0 8.0 0.00 0.00 0.00 59 1014.5
20220522150018 88 190 1.0 6.0 0.00 0.00 0.00 63 1014.6
20220522144515 87 355 1.0 3.0 0.00 0.00 0.00 64 1014.7
20220522143012 86 113 0.0 4.0 0.00 0.00 0.00 66 1014.7
20220522141613 85 355 0.0 2.0 0.00 0.00 0.00 66 1014.9
20220522140002 83 324 0.0 2.0 0.00 0.00 0.00 70 1014.8
20220522134558 82 323 1.0 3.0 0.00 0.00 0.00 72 1014.9
20220522133057 81 312 2.0 5.0 0.00 0.00 0.00 74 1015.0
20220522131550 79 38 1.0 3.0 0.00 0.00 0.00 77 1015.1
20220522130051 78 38 0.0 3.0 0.00 0.00 0.00 79 1015.1
20220522124544 75 39 0.0 1.0 0.00 0.00 0.00 84 1015.1